Flag for India Weather past 2 weeks in Nagercoil, Tamil Nadu, India

Now
88 °F

Passing clouds.


Feels Like: 98 °F
Forecast: 80 / 91 °F
Wind: 12 mph from West

Location: Thiruvananthapuram

Current Time: Jul 5, 2015 at 7:02:53 PM

Latest Report: Jul 5, 2015 at 5:10 PM


Visibility: 4 mi

Pressure: 29.77 "Hg

Humidity: 66%

Dew point: 75 °F

Location of NagercoilLocation

Historic Weather in Nagercoil — Graph

°F

Nagercoil temperature yesterday

Maximum temperature yesterday: 90 °F (at 1:40 PM)
Minimum temperature yesterday: 79 °F (at 2:10 AM)
Average temperature yesterday: 83 °F

Past Weeks' High & Low Weather Summary

 TemperatureHumidityPressure
High90 °F (Jun 21, 2:10 PM)100% (Jun 28, 3:10 AM)29.92 "Hg (Jun 28, 3:10 AM)
Low48 °F (Jun 29, 12:10 PM)63% (Jun 21, 2:10 PM)29.68 "Hg (Jun 20, 4:40 PM)
Average83 °F80%29.82 "Hg
* Reported Jun 20 4:40 PM — Jul 5 5:10 PM, Nagercoil, Weather by CustomWeather, © 2015

Note: Actual official high and low records may vary slightly from our data, if they occured in-between our weather recording intervals... More about our weather records

Advertising

Nagercoil weather history for previous 24 hours

 ConditionsComfort  
Time TempWeatherWind HumidityBarometerVisibility
5:10 PM
Sun, Jul 5
88 °FPassing clouds.12 mph66%29.77 "Hg4 mi
4:40 PM90 °FPassing clouds.12 mph67%29.77 "Hg4 mi
4:10 PM90 °FPassing clouds.9 mph67%29.77 "Hg4 mi
3:40 PM90 °FPassing clouds.12 mph67%29.77 "Hg4 mi
3:10 PM90 °FScattered clouds.9 mph67%29.77 "Hg4 mi
2:40 PM90 °FScattered clouds.9 mph67%29.77 "Hg4 mi
2:10 PM90 °FPassing clouds.12 mph67%29.80 "Hg4 mi
1:40 PM90 °FScattered clouds.14 mph67%29.80 "Hg4 mi
1:10 PM90 °FScattered clouds.14 mph67%29.80 "Hg4 mi
9:10 AM84 °FScattered clouds.7 mph74%29.86 "Hg3 mi
7:10 AM79 °FBroken clouds.9 mph84%29.83 "Hg1 mi
6:40 AM79 °FDrizzle. Broken clouds.7 mph84%29.83 "Hg1 mi
6:10 AM79 °FPartly cloudy.5 mph84%29.83 "Hg2 mi
5:40 AM79 °FPartly cloudy.5 mph84%29.80 "Hg2 mi
4:40 AM79 °FHaze.3 mph84%29.80 "Hg2 mi
3:40 AM79 °FHaze.3 mph84%29.80 "Hg2 mi
2:10 AM79 °FHaze.6 mph84%29.80 "Hg2 mi
1:40 AM79 °FHaze.6 mph84%29.83 "Hg2 mi
1:10 AM81 °FHaze.6 mph79%29.83 "Hg2 mi
12:40 AM81 °FHaze.8 mph79%29.83 "Hg2 mi
12:10 AM81 °FHaze.8 mph79%29.86 "Hg2 mi
11:40 PM
Sat, Jul 4
81 °FHaze.6 mph79%29.86 "Hg2 mi
10:40 PM82 °FHaze.7 mph74%29.86 "Hg2 mi
10:10 PM82 °FHaze.8 mph74%29.86 "Hg2 mi
9:40 PM82 °FHaze.8 mph79%29.86 "Hg2 mi
8:40 PM84 °FHaze.8 mph74%29.86 "Hg2 mi
8:10 PM84 °FHaze.9 mph74%29.86 "Hg2 mi
7:40 PM84 °FHaze.10 mph74%29.86 "Hg2 mi
7:10 PM86 °FHaze.9 mph70%29.83 "Hg2 mi
Weather by CustomWeather, © 2015

See weather overviewHow to use our weather pages